Bar Harbor, ME

3:45 PM EST on February 19, 2018 (GMT -0500)
Hancock County-Bar Harbor

Weather History for KBHB - February, 2014

Change the Weather History Date:

Wednesday, February 26, 2014

  Actual Average Record
Temperature  
Mean Temperature 14 °F -  
Max Temperature 26 °F 34 °F 50 °F (2017)
Min Temperature 3 °F 18 °F -2 °F (2003)
Degree Days  
Heating Degree Days 50    
Moisture  
Dew Point 9 °F    
Average Humidity 75    
Maximum Humidity 100    
Minimum Humidity 51    
Precipitation  
Precipitation 0.00 in - - ()
Sea Level Pressure  
Sea Level Pressure 29.81 in    
Wind  
Wind Speed 4 mph (West)    
Max Wind Speed 16 mph    
Max Gust Speed 24 mph    
Visibility 10 miles    
Events      
Averages and records for this station are not official NWS values.
T = Trace of Precipitation, MM = Missing Value Source: NWS Daily Summary

Daily Weather History Graph

Daily Weather History Graph

Search for Another Location

Airport or City:

Trip Planner

Search our weather history database for the weather conditions in past years. The results will help you decide how hot, cold, wet, or windy it might be!

Date:

Astronomy

Feb. 26, 2014 Rise Set
Actual Time 6:15 AM EST 5:17 PM EST
Civil Twilight 5:46 AM EST 5:46 PM EST
Nautical Twilight 5:12 AM EST 6:20 PM EST
Astronomical Twilight 4:39 AM EST 6:54 PM EST
Moon 4:04 AM EST (2/26) 2:23 PM EST (2/26)
Length of Visible Light 12h 00m
Length of Day
11h 01m
Waning Crescent, 10% of the Moon is Illuminated
Feb 26
Waning Crescent
Mar 1
New
Mar 8
First Quarter
Mar 16
Full
Mar 23
Last Quarter

Hourly Weather History & Observations

Time (EST) Temp. Windchill Dew Point Humidity Pressure Visibility Wind Dir Wind Speed Gust Speed Precip Events Conditions
12:15 AM 10.4 °F - 3.2 °F 73% 29.89 in 10.0 mi Calm Calm - N/A   Clear
12:35 AM 10.4 °F 0.8 °F 3.2 °F 73% 29.89 in 10.0 mi WNW 5.8 mph - N/A   Clear
12:55 AM 12.2 °F 4.3 °F 3.2 °F 67% 29.90 in 10.0 mi West 4.6 mph - N/A   Clear
1:15 AM 12.2 °F - 3.2 °F 67% 29.90 in 10.0 mi Calm Calm - N/A   Clear
1:35 AM 10.4 °F 2.2 °F 3.2 °F 73% 29.89 in 10.0 mi WNW 4.6 mph - N/A   Clear
1:55 AM 10.4 °F 4.0 °F 1.4 °F 67% 29.89 in 10.0 mi WNW 3.5 mph - N/A   Clear
2:15 AM 10.4 °F 4.0 °F 1.4 °F 67% 29.89 in 10.0 mi West 3.5 mph - N/A   Clear
2:35 AM 10.4 °F 4.0 °F 1.4 °F 67% 29.89 in 10.0 mi WNW 3.5 mph - N/A   Clear
2:55 AM 8.6 °F 2.0 °F 3.2 °F 79% 29.88 in 10.0 mi WNW 3.5 mph - N/A   Clear
3:15 AM 8.6 °F 0.1 °F 3.2 °F 79% 29.87 in 10.0 mi WNW 4.6 mph - N/A   Clear
3:35 AM 8.6 °F - 3.2 °F 79% 29.88 in 10.0 mi Calm Calm - N/A   Clear
3:55 AM 8.6 °F - 3.2 °F 79% 29.87 in 10.0 mi Calm Calm - N/A   Clear
4:15 AM 6.8 °F - 3.2 °F 85% 29.88 in 10.0 mi Calm Calm - N/A   Clear
4:35 AM 6.8 °F - 3.2 °F 85% 29.88 in 10.0 mi Calm Calm - N/A   Clear
4:55 AM 8.6 °F 2.0 °F 5.0 °F 85% 29.88 in 10.0 mi West 3.5 mph - N/A   Clear
5:15 AM 8.6 °F 2.0 °F 5.0 °F 85% 29.88 in 10.0 mi West 3.5 mph - N/A   Clear
5:35 AM 3.2 °F - 3.2 °F 100% 29.88 in 10.0 mi Calm Calm - N/A   Clear
5:55 AM 3.2 °F - 1.4 °F 92% 29.88 in 10.0 mi Calm Calm - N/A   Clear
6:15 AM 3.2 °F - 3.2 °F 100% 29.88 in 9.0 mi Calm Calm - N/A   Clear
6:35 AM 3.2 °F - 1.4 °F 92% 29.88 in 7.0 mi Calm Calm - N/A   Clear
6:55 AM 6.8 °F - 3.2 °F 85% 29.88 in 9.0 mi Calm Calm - N/A   Clear
7:15 AM 6.8 °F - 3.2 °F 85% 29.88 in 9.0 mi Calm Calm - N/A   Clear
7:35 AM 10.4 °F - 6.8 °F 85% 29.87 in 8.0 mi Calm Calm - N/A   Clear
7:55 AM 10.4 °F - 8.6 °F 92% 29.87 in 10.0 mi Calm Calm - N/A   Clear
8:15 AM 12.2 °F - 10.4 °F 92% 29.87 in 10.0 mi Calm Calm - N/A   Clear
8:35 AM 14.0 °F - 8.6 °F 79% 29.86 in 10.0 mi Calm Calm - N/A   Scattered Clouds
8:55 AM 15.8 °F - 8.6 °F 73% 29.86 in 10.0 mi Calm Calm - N/A   Overcast
9:15 AM 15.8 °F - 6.8 °F 68% 29.85 in 10.0 mi Calm Calm - N/A   Overcast
9:35 AM 17.6 °F 12.3 °F 6.8 °F 63% 29.85 in 10.0 mi SSE 3.5 mph - N/A   Overcast
9:55 AM - - - N/A% - - North - - N/A   Unknown
10:15 AM - - - N/A% - - North - - N/A   Unknown
10:35 AM - - - N/A% - - North - - N/A   Unknown
10:55 AM - - - N/A% 29.82 in - South 6.9 mph - N/A   Unknown
11:15 AM 19.4 °F 7.2 °F 8.6 °F 63% 29.81 in 10.0 mi South 11.5 mph - N/A   Overcast
11:35 AM 21.2 °F 11.7 °F 10.4 °F 63% 29.80 in 10.0 mi SSW 8.1 mph - N/A   Overcast
11:55 AM 21.2 °F 12.6 °F 8.6 °F 58% 29.79 in 10.0 mi SSW 6.9 mph - N/A   Overcast
12:15 PM 21.2 °F 9.5 °F 10.4 °F 63% 29.78 in 10.0 mi SSW 11.5 mph - N/A   Mostly Cloudy
12:35 PM 21.2 °F 11.7 °F 12.2 °F 68% 29.77 in 10.0 mi SSW 8.1 mph 16.1 mph N/A   Overcast
12:55 PM 21.2 °F 7.3 °F 15.8 °F 80% 29.75 in 10.0 mi South 16.1 mph 19.6 mph N/A   Overcast
1:15 PM 21.2 °F 10.1 °F 17.6 °F 86% 29.75 in 10.0 mi SSW 10.4 mph - N/A   Scattered Clouds
1:35 PM 23.0 °F 11.1 °F 15.8 °F 74% 29.74 in 10.0 mi SW 12.7 mph 24.2 mph N/A   Partly Cloudy
1:55 PM 23.0 °F 11.7 °F 15.8 °F 74% 29.73 in 10.0 mi SSW 11.5 mph 17.3 mph N/A   Mostly Cloudy
2:15 PM 24.8 °F 11.9 °F 15.8 °F 69% 29.72 in 10.0 mi SSW 16.1 mph - N/A   Mostly Cloudy
2:35 PM 24.8 °F 15.3 °F 15.8 °F 69% 29.72 in 10.0 mi SSW 9.2 mph - N/A   Mostly Cloudy
2:55 PM 24.8 °F 13.4 °F 15.8 °F 69% 29.71 in 10.0 mi South 12.7 mph - N/A   Overcast
3:15 PM 24.8 °F 14.0 °F 15.8 °F 69% 29.71 in 10.0 mi South 11.5 mph 16.1 mph N/A   Overcast
3:35 PM 24.8 °F 17.9 °F 14.0 °F 64% 29.70 in 10.0 mi SSW 5.8 mph - N/A   Scattered Clouds
3:55 PM 26.6 °F 15.7 °F 10.4 °F 51% 29.70 in 10.0 mi SW 12.7 mph 18.4 mph N/A   Scattered Clouds
4:15 PM 26.6 °F 17.5 °F 10.4 °F 51% 29.70 in 10.0 mi SW 9.2 mph - N/A   Partly Cloudy
4:35 PM 24.8 °F 16.1 °F 10.4 °F 54% 29.70 in 10.0 mi WSW 8.1 mph - N/A   Partly Cloudy
4:55 PM 24.8 °F 14.0 °F 12.2 °F 59% 29.71 in 10.0 mi SW 11.5 mph - N/A   Mostly Cloudy
5:15 PM 24.8 °F 14.6 °F 12.2 °F 59% 29.71 in 10.0 mi SW 10.4 mph - N/A   Overcast
5:35 PM 24.8 °F 17.9 °F 15.8 °F 69% 29.72 in 10.0 mi SW 5.8 mph - N/A   Mostly Cloudy
5:55 PM 23.0 °F 17.0 °F 17.6 °F 80% 29.73 in 5.0 mi West 4.6 mph - N/A   Mostly Cloudy
6:15 PM 21.2 °F 12.6 °F 15.8 °F 80% 29.74 in 10.0 mi West 6.9 mph - N/A   Scattered Clouds
6:35 PM 21.2 °F 16.4 °F 15.8 °F 80% 29.74 in 10.0 mi WNW 3.5 mph - N/A   Partly Cloudy
6:55 PM 21.2 °F 16.4 °F 15.8 °F 80% 29.75 in 10.0 mi WNW 3.5 mph - N/A   Clear
7:15 PM 19.4 °F 11.5 °F 17.6 °F 93% 29.76 in 5.0 mi West 5.8 mph - N/A   Mostly Cloudy
7:35 PM 19.4 °F 8.6 °F 15.8 °F 86% 29.76 in 10.0 mi West 9.2 mph 17.3 mph N/A   Scattered Clouds
7:55 PM 19.4 °F 9.5 °F 15.8 °F 86% 29.76 in 10.0 mi NW 8.1 mph - N/A   Partly Cloudy
8:15 PM 17.6 °F 9.3 °F 14.0 °F 86% 29.77 in 10.0 mi NW 5.8 mph - N/A   Clear
8:35 PM 17.6 °F 12.3 °F 14.0 °F 86% 29.78 in 10.0 mi WNW 3.5 mph - N/A   Clear
8:55 PM 17.6 °F - 12.2 °F 79% 29.79 in 10.0 mi Calm Calm - N/A   Clear
9:15 PM 17.6 °F 12.3 °F 12.2 °F 79% 29.79 in 10.0 mi WNW 3.5 mph - N/A   Clear
9:35 PM 15.8 °F 7.2 °F 12.2 °F 86% 29.80 in 10.0 mi NW 5.8 mph - N/A   Scattered Clouds
9:55 PM 15.8 °F 7.2 °F 12.2 °F 86% 29.81 in 10.0 mi NW 5.8 mph - N/A   Mostly Cloudy
10:15 PM 15.8 °F 4.2 °F 10.4 °F 79% 29.81 in 10.0 mi NNW 9.2 mph - N/A   Mostly Cloudy
10:35 PM 15.8 °F 10.2 °F 6.8 °F 68% 29.82 in 10.0 mi NNW 3.5 mph - N/A   Partly Cloudy
10:55 PM 14.0 °F 6.5 °F 5.0 °F 67% 29.82 in 10.0 mi NNW 4.6 mph - N/A   Clear
11:15 PM 14.0 °F 6.5 °F 1.4 °F 57% 29.82 in 10.0 mi NNW 4.6 mph - N/A   Clear
11:35 PM 12.2 °F 6.1 °F 1.4 °F 62% 29.82 in 10.0 mi NNW 3.5 mph - N/A   Clear
11:55 PM 12.2 °F 4.3 °F 1.4 °F 62% 29.82 in 10.0 mi NNW 4.6 mph - N/A   Clear